Skip navigation

Daily Weather Reports

[Select Refresh to Update]


Yesterday's Data File


6/27/16
Time

Wind Dir
 

Wind Spd
mph

Wind Gust
mph

Hum In
%

Humidity
%

Temp In
 F

Temp
 F

Raw Barom
in

Tot Rain
in

DailyRain
in

HourRain
in

24HrRain
in

RainRate
in/hr
12:00am 354 0 2 18 65 111.0 75.0 29.88 11.56 0.00 0.00 0.00 0.000
12:01am 354 0 1 18 65 111.0 74.9 29.88 11.56 0.00 0.00 0.00 0.000
12:02am 354 1 2 18 65 111.0 74.9 29.88 11.56 0.00 0.00 0.00 0.000
12:02am 354 1 2 18 64 111.0 74.9 29.87 11.56 0.00 0.00 0.00 0.000
12:04am 353 0 2 18 64 110.8 74.9 29.88 11.56 0.00 0.00 0.00 0.000
12:05am 353 0 2 18 64 110.8 74.8 29.87 11.56 0.00 0.00 0.00 0.000
12:06am 353 0 2 18 65 110.8 74.8 29.87 11.56 0.00 0.00 0.00 0.000
12:07am 354 0 2 18 65 110.8 74.8 29.87 11.56 0.00 0.00 0.00 0.000
12:08am 354 0 2 18 65 110.8 74.8 29.87 11.56 0.00 0.00 0.00 0.000
12:09am 353 0 2 18 65 110.8 74.8 29.87 11.56 0.00 0.00 0.00 0.000
12:10am 354 0 2 18 65 110.8 74.8 29.87 11.56 0.00 0.00 0.00 0.000
12:11am 354 0 2 18 64 110.8 74.8 29.87 11.56 0.00 0.00 0.00 0.000
12:12am 354 0 2 18 64 110.8 74.7 29.87 11.56 0.00 0.00 0.00 0.000
12:13am 354 0 2 18 64 110.8 74.7 29.87 11.56 0.00 0.00 0.00 0.000
12:14am 353 0 2 18 64 110.8 74.7 29.87 11.56 0.00 0.00 0.00 0.000
12:15am 353 0 2 18 64 110.8 74.7 29.87 11.56 0.00 0.00 0.00 0.000
12:16am 354 0 1 18 64 110.8 74.7 29.87 11.56 0.00 0.00 0.00 0.000
12:17am 353 0 1 18 65 110.8 74.8 29.87 11.56 0.00 0.00 0.00 0.000
12:17am 353 0 1 18 65 110.8 74.8 29.87 11.56 0.00 0.00 0.00 0.000
12:19am 354 1 1 18 65 110.8 74.8 29.87 11.56 0.00 0.00 0.00 0.000
12:20am 104 2 3 18 65 110.8 74.8 29.87 11.56 0.00 0.00 0.00 0.000
12:21am 105 2 3 18 65 110.8 74.8 29.88 11.56 0.00 0.00 0.00 0.000
12:22am 133 4 4 18 65 110.8 74.8 29.88 11.56 0.00 0.00 0.00 0.000
12:23am 134 4 5 18 65 110.8 74.9 29.88 11.56 0.00 0.00 0.00 0.000
12:24am 133 2 5 18 65 110.8 74.9 29.88 11.56 0.00 0.00 0.00 0.000
12:25am 134 1 5 18 65 110.8 74.9 29.88 11.56 0.00 0.00 0.00 0.000
12:25am 133 3 5 18 65 110.8 74.9 29.88 11.56 0.00 0.00 0.00 0.000
12:27am 133 3 5 18 65 110.8 74.9 29.88 11.56 0.00 0.00 0.00 0.000
12:28am 133 1 5 18 65 110.5 74.9 29.88 11.56 0.00 0.00 0.00 0.000
12:29am 133 3 5 18 65 110.5 74.9 29.88 11.56 0.00 0.00 0.00 0.000
12:30am 133 3 5 18 65 110.5 74.9 29.88 11.56 0.00 0.00 0.00 0.000
12:31am 133 3 3 18 65 110.5 74.9 29.88 11.56 0.00 0.00 0.00 0.000
12:32am 133 1 4 18 65 110.5 74.9 29.88 11.56 0.00 0.00 0.00 0.000
12:33am 133 2 4 18 65 110.5 74.9 29.88 11.56 0.00 0.00 0.00 0.000
12:34am 133 0 4 18 65 110.5 74.9 29.88 11.56 0.00 0.00 0.00 0.000
12:35am 133 0 4 18 65 110.5 74.9 29.88 11.56 0.00 0.00 0.00 0.000
12:36am 133 2 4 18 65 110.5 74.9 29.88 11.56 0.00 0.00 0.00 0.000
12:37am 133 0 4 18 65 110.5 74.9 29.88 11.56 0.00 0.00 0.00 0.000
12:38am 133 0 4 18 65 110.5 74.9 29.88 11.56 0.00 0.00 0.00 0.000
12:38am 133 0 4 18 65 110.5 74.9 29.88 11.56 0.00 0.00 0.00 0.000
12:40am 133 0 4 18 65 110.5 74.9 29.88 11.56 0.00 0.00 0.00 0.000
12:41am 133 0 4 18 65 110.5 74.9 29.88 11.56 0.00 0.00 0.00 0.000
12:42am 133 0 4 18 65 110.5 75.0 29.88 11.56 0.00 0.00 0.00 0.000
12:43am 133 0 4 18 65 110.5 75.0 29.88 11.56 0.00 0.00 0.00 0.000
12:44am 133 0 4 18 65 110.5 75.0 29.88 11.56 0.00 0.00 0.00 0.000
12:45am 133 0 4 18 65 110.5 75.0 29.88 11.56 0.00 0.00 0.00 0.000
12:46am 133 0 0 18 65 110.5 75.0 29.88 11.56 0.00 0.00 0.00 0.000
12:47am 133 0 0 18 65 110.5 75.0 29.88 11.56 0.00 0.00 0.00 0.000
12:48am 133 0 0 18 65 110.5 75.0 29.88 11.56 0.00 0.00 0.00 0.000
12:49am 133 0 0 18 65 110.5 75.0 29.88 11.56 0.00 0.00 0.00 0.000
12:50am 133 0 0 18 65 110.5 75.0 29.88 11.56 0.00 0.00 0.00 0.000
12:51am 133 0 0 18 65 110.2 74.9 29.88 11.56 0.00 0.00 0.00 0.000
12:51am 133 0 0 18 65 110.2 75.0 29.88 11.56 0.00 0.00 0.00 0.000
12:53am 133 0 0 18 65 110.2 75.0 29.88 11.56 0.00 0.00 0.00 0.000
12:54am 133 0 0 18 65 110.2 74.9 29.87 11.56 0.00 0.00 0.00 0.000
12:55am 133 0 0 18 65 110.2 74.9 29.87 11.56 0.00 0.00 0.00 0.000
12:56am 133 0 0 18 65 110.2 74.9 29.87 11.56 0.00 0.00 0.00 0.000
12:57am 34 1 2 18 65 110.2 74.9 29.87 11.56 0.00 0.00 0.00 0.000
12:58am 34 1 2 18 65 110.2 74.9 29.87 11.56 0.00 0.00 0.00 0.000
12:59am 34 2 3 18 65 110.2 74.8 29.87 11.56 0.00 0.00 0.00 0.000
1:00am 34 3 3 18 64 110.2 74.7 29.87 11.56 0.00 0.00 0.00 0.000
1:01am 34 3 3 18 63 110.2 74.5 29.87 11.56 0.00 0.00 0.00 0.000
1:02am 34 2 3 18 63 110.2 74.4 29.87 11.56 0.00 0.00 0.00 0.000
1:03am 34 1 3 18 63 110.2 74.3 29.87 11.56 0.00 0.00 0.00 0.000
1:04am 34 1 3 18 63 110.2 74.2 29.87 11.56 0.00 0.00 0.00 0.000
1:05am 34 0 3 18 64 110.2 74.1 29.87 11.56 0.00 0.00 0.00 0.000
1:06am 34 0 3 18 64 110.2 74.0 29.87 11.56 0.00 0.00 0.00 0.000
1:07am 34 0 3 18 64 110.2 74.0 29.87 11.56 0.00 0.00 0.00 0.000
1:08am 34 0 3 18 64 110.2 74.0 29.87 11.56 0.00 0.00 0.00 0.000
1:09am 34 0 3 18 64 110.2 73.9 29.87 11.56 0.00 0.00 0.00 0.000
1:10am 34 0 3 18 64 110.2 73.9 29.87 11.56 0.00 0.00 0.00 0.000
1:11am 34 0 3 18 64 110.2 73.8 29.87 11.56 0.00 0.00 0.00 0.000
1:12am 34 2 3 18 64 110.2 73.8 29.87 11.56 0.00 0.00 0.00 0.000
1:12am 34 3 3 18 64 110.2 73.8 29.87 11.56 0.00 0.00 0.00 0.000
1:14am 34 2 3 18 64 109.9 73.7 29.87 11.56 0.00 0.00 0.00 0.000
1:15am 34 2 3 18 64 109.9 73.6 29.87 11.56 0.00 0.00 0.00 0.000
1:16am 34 2 2 18 64 109.9 73.6 29.87 11.56 0.00 0.00 0.00 0.000
1:17am 34 3 3 18 64 109.9 73.5 29.87 11.56 0.00 0.00 0.00 0.000
1:18am 2 2 3 18 64 109.9 73.4 29.87 11.56 0.00 0.00 0.00 0.000
1:19am 2 2 3 18 64 109.9 73.3 29.87 11.56 0.00 0.00 0.00 0.000
1:20am 2 3 3 18 63 109.9 73.1 29.87 11.56 0.00 0.00 0.00 0.000
1:21am 2 2 3 18 63 109.9 73.0 29.87 11.56 0.00 0.00 0.00 0.000
1:22am 1 3 4 18 63 109.9 72.9 29.87 11.56 0.00 0.00 0.00 0.000
1:23am 2 2 4 18 63 109.9 72.8 29.87 11.56 0.00 0.00 0.00 0.000
1:24am 1 3 4 18 64 109.9 72.7 29.87 11.56 0.00 0.00 0.00 0.000
1:25am 2 3 4 18 64 109.9 72.6 29.87 11.56 0.00 0.00 0.00 0.000
1:26am 2 4 4 18 64 109.9 72.5 29.87 11.56 0.00 0.00 0.00 0.000
1:26am 349 4 5 18 64 109.9 72.4 29.87 11.56 0.00 0.00 0.00 0.000
1:28am 349 3 5 18 64 109.9 72.4 29.87 11.56 0.00 0.00 0.00 0.000
1:29am 349 2 5 18 65 109.9 72.4 29.87 11.56 0.00 0.00 0.00 0.000
1:30am 349 2 5 18 65 109.9 72.4 29.86 11.56 0.00 0.00 0.00 0.000
1:31am 349 2 3 18 66 109.9 72.4 29.87 11.56 0.00 0.00 0.00 0.000
1:32am 349 2 3 18 66 109.6 72.4 29.86 11.56 0.00 0.00 0.00 0.000
1:33am 349 3 4 18 66 109.6 72.4 29.86 11.56 0.00 0.00 0.00 0.000
1:34am 349 3 4 18 66 109.6 72.3 29.86 11.56 0.00 0.00 0.00 0.000
1:34am 349 2 4 18 66 109.6 72.3 29.86 11.56 0.00 0.00 0.00 0.000
1:35am 349 3 4 18 65 109.6 72.3 29.86 11.56 0.00 0.00 0.00 0.000
1:37am 349 3 4 17 65 109.6 72.2 29.86 11.56 0.00 0.00 0.00 0.000
1:37am 349 1 4 18 65 109.6 72.2 29.86 11.56 0.00 0.00 0.00 0.000
1:38am 349 0 4 18 64 109.6 72.1 29.86 11.56 0.00 0.00 0.00 0.000
1:39am 349 0 4 17 64 109.6 72.1 29.86 11.56 0.00 0.00 0.00 0.000
1:41am 349 0 4 17 64 109.6 72.1 29.86 11.56 0.00 0.00 0.00 0.000
1:42am 349 0 4 17 64 109.6 72.1 29.86 11.56 0.00 0.00 0.00 0.000
1:43am 349 0 4 17 64 109.6 72.1 29.86 11.56 0.00 0.00 0.00 0.000
1:44am 349 0 4 17 64 109.6 72.1 29.86 11.56 0.00 0.00 0.00 0.000
1:44am 349 0 4 17 65 109.6 72.1 29.86 11.56 0.00 0.00 0.00 0.000
1:46am 349 0 0 17 65 109.6 72.1 29.86 11.56 0.00 0.00 0.00 0.000
1:47am 349 0 0 17 65 109.6 72.2 29.86 11.56 0.00 0.00 0.00 0.000
1:48am 349 0 0 17 65 109.6 72.2 29.86 11.56 0.00 0.00 0.00 0.000
1:48am 349 0 0 17 65 109.6 72.2 29.86 11.56 0.00 0.00 0.00 0.000
1:50am 349 0 0 17 65 109.6 72.3 29.86 11.56 0.00 0.00 0.00 0.000
1:51am 349 0 1 17 65 109.4 72.3 29.86 11.56 0.00 0.00 0.00 0.000
1:51am 349 0 1 17 65 109.4 72.4 29.86 11.56 0.00 0.00 0.00 0.000
1:53am 45 4 4 17 65 109.4 72.5 29.86 11.56 0.00 0.00 0.00 0.000
1:54am 51 3 4 17 66 109.4 72.5 29.86 11.56 0.00 0.00 0.00 0.000
1:55am 51 0 4 17 66 109.4 72.7 29.86 11.56 0.00 0.00 0.00 0.000
1:56am 50 1 4 17 66 109.4 72.7 29.85 11.56 0.00 0.00 0.00 0.000
1:57am 50 1 4 17 66 109.4 72.8 29.86 11.56 0.00 0.00 0.00 0.000
1:58am 51 0 4 17 66 109.4 72.9 29.85 11.56 0.00 0.00 0.00 0.000
1:59am 50 1 4 17 66 109.4 72.9 29.86 11.56 0.00 0.00 0.00 0.000
2:00am 50 1 4 17 66 109.4 73.0 29.85 11.56 0.00 0.00 0.00 0.000
2:01am 51 0 2 17 66 109.4 73.1 29.86 11.56 0.00 0.00 0.00 0.000
2:02am 51 0 2 17 66 109.4 73.1 29.86 11.56 0.00 0.00 0.00 0.000
2:03am 50 1 2 17 66 109.4 73.1 29.86 11.56 0.00 0.00 0.00 0.000
2:04am 89 2 2 17 66 109.4 73.2 29.86 11.56 0.00 0.00 0.00 0.000
2:05am 89 1 2 17 66 109.4 73.2 29.86 11.56 0.00 0.00 0.00 0.000
2:06am 92 2 3 17 66 109.4 73.3 29.86 11.56 0.00 0.00 0.00 0.000
2:07am 92 2 3 17 66 109.4 73.3 29.86 11.56 0.00 0.00 0.00 0.000
2:08am 92 0 3 17 66 109.4 73.3 29.86 11.56 0.00 0.00 0.00 0.000
2:09am 92 0 3 17 66 109.4 73.3 29.86 11.56 0.00 0.00 0.00 0.000
2:10am 92 0 3 17 66 109.1 73.3 29.86 11.56 0.00 0.00 0.00 0.000
2:11am 92 0 3 17 66 109.1 73.3 29.86 11.56 0.00 0.00 0.00 0.000
2:12am 92 0 3 17 66 109.1 73.4 29.86 11.56 0.00 0.00 0.00 0.000
2:13am 92 0 3 17 66 109.1 73.3 29.86 11.56 0.00 0.00 0.00 0.000
2:13am 92 0 3 17 66 109.1 73.4 29.86 11.56 0.00 0.00 0.00 0.000
2:15am 92 0 3 17 66 109.1 73.4 29.86 11.56 0.00 0.00 0.00 0.000
2:15am 92 0 0 17 66 109.1 73.3 29.86 11.56 0.00 0.00 0.00 0.000
2:17am 92 0 0 17 65 109.1 73.3 29.86 11.56 0.00 0.00 0.00 0.000
2:18am 92 0 0 17 65 109.1 73.3 29.86 11.56 0.00 0.00 0.00 0.000
2:19am 92 0 0 17 65 109.1 73.3 29.86 11.56 0.00 0.00 0.00 0.000
2:20am 92 0 0 17 65 109.1 73.3 29.86 11.56 0.00 0.00 0.00 0.000
2:21am 92 0 0 17 65 109.1 73.2 29.86 11.56 0.00 0.00 0.00 0.000
2:22am 92 0 0 17 64 109.1 73.1 29.86 11.56 0.00 0.00 0.00 0.000
2:23am 92 0 0 17 64 109.1 73.1 29.86 11.56 0.00 0.00 0.00 0.000
2:24am 89 0 1 17 64 109.1 73.0 29.86 11.56 0.00 0.00 0.00 0.000
2:25am 89 1 1 17 63 109.1 73.0 29.85 11.56 0.00 0.00 0.00 0.000
2:26am 30 1 2 17 63 109.1 72.9 29.85 11.56 0.00 0.00 0.00 0.000
2:27am 30 1 2 17 63 109.1 72.8 29.86 11.56 0.00 0.00 0.00 0.000
2:28am 30 0 2 17 62 109.1 72.7 29.86 11.56 0.00 0.00 0.00 0.000
2:28am 30 2 2 17 62 108.8 72.6 29.86 11.56 0.00 0.00 0.00 0.000
2:29am 30 2 2 17 62 108.8 72.5 29.86 11.56 0.00 0.00 0.00 0.000
2:30am 30 1 2 17 62 108.8 72.5 29.86 11.56 0.00 0.00 0.00 0.000
2:32am 30 1 2 17 62 108.8 72.4 29.86 11.56 0.00 0.00 0.00 0.000
2:33am 30 0 2 17 62 108.8 72.4 29.86 11.56 0.00 0.00 0.00 0.000
2:34am 30 0 2 17 62 108.8 72.3 29.86 11.56 0.00 0.00 0.00 0.000
2:35am 30 0 2 17 62 108.8 72.2 29.86 11.56 0.00 0.00 0.00 0.000
2:36am 30 0 2 17 62 108.8 72.2 29.86 11.56 0.00 0.00 0.00 0.000
2:36am 30 0 2 17 63 108.8 72.2 29.86 11.56 0.00 0.00 0.00 0.000
2:38am 30 0 2 17 63 108.8 72.2 29.86 11.56 0.00 0.00 0.00 0.000
2:39am 30 0 2 17 63 108.8 72.2 29.86 11.56 0.00 0.00 0.00 0.000
2:40am 30 0 2 17 63 108.8 72.2 29.86 11.56 0.00 0.00 0.00 0.000
2:41am 30 0 2 17 63 108.8 72.1 29.86 11.56 0.00 0.00 0.00 0.000
2:42am 30 0 2 17 63 108.8 72.1 29.86 11.56 0.00 0.00 0.00 0.000
2:43am 30 0 2 17 63 108.8 72.1 29.86 11.56 0.00 0.00 0.00 0.000
2:43am 30 0 2 17 63 108.8 72.1 29.86 11.56 0.00 0.00 0.00 0.000
2:45am 30 0 2 17 63 108.8 72.1 29.86 11.56 0.00 0.00 0.00 0.000
2:45am 30 0 0 17 63 108.5 72.1 29.86 11.56 0.00 0.00 0.00 0.000
2:47am 30 0 0 17 63 108.5 72.1 29.86 11.56 0.00 0.00 0.00 0.000
2:48am 30 0 0 17 63 108.5 72.1 29.86 11.56 0.00 0.00 0.00 0.000
2:49am 30 0 0 17 64 108.5 72.1 29.86 11.56 0.00 0.00 0.00 0.000
2:50am 40 2 2 17 64 108.5 72.2 29.86 11.56 0.00 0.00 0.00 0.000
2:51am 43 0 2 17 65 108.5 72.2 29.86 11.56 0.00 0.00 0.00 0.000
2:51am 43 1 2 17 65 108.5 72.3 29.86 11.56 0.00 0.00 0.00 0.000
2:53am 43 0 2 17 65 108.5 72.3 29.86 11.56 0.00 0.00 0.00 0.000
2:53am 43 0 2 17 66 108.5 72.4 29.86 11.56 0.00 0.00 0.00 0.000
2:55am 43 0 2 17 66 108.5 72.4 29.86 11.56 0.00 0.00 0.00 0.000
2:56am 43 0 2 17 66 108.5 72.4 29.86 11.56 0.00 0.00 0.00 0.000
2:57am 43 0 2 17 66 108.5 72.5 29.86 11.56 0.00 0.00 0.00 0.000
2:58am 43 0 2 17 66 108.5 72.5 29.86 11.56 0.00 0.00 0.00 0.000
2:59am 43 0 2 17 66 108.5 72.5 29.86 11.56 0.00 0.00 0.00 0.000
3:00am 43 0 2 17 66 108.5 72.5 29.86 11.56 0.00 0.00 0.00 0.000
3:01am 43 0 0 17 66 108.5 72.5 29.86 11.56 0.00 0.00 0.00 0.000
3:01am 43 0 0 17 66 108.5 72.5 29.86 11.56 0.00 0.00 0.00 0.000
3:03am 43 0 0 17 66 108.5 72.5 29.86 11.56 0.00 0.00 0.00 0.000
3:04am 43 0 0 17 66 108.2 72.5 29.86 11.56 0.00 0.00 0.00 0.000
3:05am 43 0 0 17 66 108.2 72.5 29.86 11.56 0.00 0.00 0.00 0.000
3:06am 43 0 0 17 66 108.2 72.5 29.86 11.56 0.00 0.00 0.00 0.000
3:07am 43 0 0 17 66 108.2 72.5 29.86 11.56 0.00 0.00 0.00 0.000
3:08am 43 0 0 17 66 108.2 72.5 29.86 11.56 0.00 0.00 0.00 0.000
3:08am 43 0 0 17 66 108.2 72.5 29.86 11.56 0.00 0.00 0.00 0.000
3:10am 43 0 0 17 66 108.2 72.5 29.86 11.56 0.00 0.00 0.00 0.000
3:11am 43 0 0 17 66 108.2 72.5 29.86 11.56 0.00 0.00 0.00 0.000
3:12am 43 0 0 17 66 108.2 72.5 29.86 11.56 0.00 0.00 0.00 0.000
3:13am 43 0 0 17 66 108.2 72.4 29.86 11.56 0.00 0.00 0.00 0.000
3:14am 43 0 0 17 66 108.2 72.4 29.86 11.56 0.00 0.00 0.00 0.000
3:15am 43 0 0 17 66 108.2 72.4 29.86 11.56 0.00 0.00 0.00 0.000
3:16am 43 0 0 17 66 108.2 72.4 29.86 11.56 0.00 0.00 0.00 0.000
3:16am 43 0 0 17 66 108.2 72.3 29.86 11.56 0.00 0.00 0.00 0.000
3:18am 43 0 0 17 66 108.2 72.3 29.86 11.56 0.00 0.00 0.00 0.000
3:18am 43 0 0 17 66 108.2 72.2 29.86 11.56 0.00 0.00 0.00 0.000
3:20am 43 0 0 17 66 108.2 72.2 29.86 11.56 0.00 0.00 0.00 0.000
3:21am 43 0 0 17 66 108.2 72.1 29.86 11.56 0.00 0.00 0.00 0.000
3:22am 43 0 0 17 66 108.0 72.1 29.86 11.56 0.00 0.00 0.00 0.000
3:23am 43 0 0 17 66 108.0 72.0 29.86 11.56 0.00 0.00 0.00 0.000
3:23am 43 0 0 17 65 108.0 72.0 29.86 11.56 0.00 0.00 0.00 0.000
3:24am 43 0 0 17 65 108.0 71.9 29.86 11.56 0.00 0.00 0.00 0.000
3:26am 43 0 0 17 65 108.0 71.9 29.86 11.56 0.00 0.00 0.00 0.000
3:27am 43 0 0 17 65 108.0 71.8 29.87 11.56 0.00 0.00 0.00 0.000
3:28am 43 0 0 17 65 108.0 71.7 29.86 11.56 0.00 0.00 0.00 0.000
3:29am 43 0 0 17 65 108.0 71.6 29.87 11.56 0.00 0.00 0.00 0.000
3:30am 43 0 0 17 65 108.0 71.6 29.87 11.56 0.00 0.00 0.00 0.000
3:30am 43 0 0 17 65 108.0 71.5 29.87 11.56 0.00 0.00 0.00 0.000
3:32am 43 0 0 17 65 108.0 71.4 29.87 11.56 0.00 0.00 0.00 0.000
3:33am 43 1 2 17 64 108.0 71.3 29.86 11.56 0.00 0.00 0.00 0.000
3:33am 43 1 2 17 64 108.0 71.2 29.86 11.56 0.00 0.00 0.00 0.000
3:35am 43 0 2 17 64 108.0 71.1 29.87 11.56 0.00 0.00 0.00 0.000
3:36am 43 0 2 17 64 108.0 71.0 29.87 11.56 0.00 0.00 0.00 0.000
3:37am 43 0 2 17 64 108.0 71.0 29.87 11.56 0.00 0.00 0.00 0.000
3:38am 43 0 2 17 64 107.7 70.9 29.87 11.56 0.00 0.00 0.00 0.000
3:39am 43 0 2 17 63 107.7 70.8 29.87 11.56 0.00 0.00 0.00 0.000
3:40am 43 0 2 17 63 107.7 70.7 29.87 11.56 0.00 0.00 0.00 0.000
3:41am 43 0 2 17 63 107.7 70.7 29.87 11.56 0.00 0.00 0.00 0.000
3:42am 43 1 2 17 63 107.7 70.7 29.87 11.56 0.00 0.00 0.00 0.000
3:43am 43 1 2 17 63 107.7 70.6 29.87 11.56 0.00 0.00 0.00 0.000
3:44am 43 1 2 17 63 107.7 70.6 29.87 11.56 0.00 0.00 0.00 0.000
3:45am 43 0 2 17 63 107.7 70.5 29.87 11.56 0.00 0.00 0.00 0.000
3:46am 43 0 0 17 63 107.7 70.5 29.87 11.56 0.00 0.00 0.00 0.000
3:47am 43 0 0 17 63 107.7 70.5 29.86 11.56 0.00 0.00 0.00 0.000
3:48am 43 0 0 17 63 107.7 70.5 29.86 11.56 0.00 0.00 0.00 0.000
3:48am 43 0 0 17 63 107.7 70.5 29.86 11.56 0.00 0.00 0.00 0.000
3:50am 43 0 1 17 63 107.7 70.5 29.86 11.56 0.00 0.00 0.00 0.000
3:51am 43 0 1 17 63 107.7 70.5 29.87 11.56 0.00 0.00 0.00 0.000
3:52am 43 0 1 17 63 107.7 70.6 29.87 11.56 0.00 0.00 0.00 0.000
3:53am 43 0 1 17 63 107.7 70.6 29.87 11.56 0.00 0.00 0.00 0.000
3:54am 43 1 1 17 63 107.7 70.6 29.87 11.56 0.00 0.00 0.00 0.000
3:55am 43 0 1 17 63 107.4 70.6 29.86 11.56 0.00 0.00 0.00 0.000
3:56am 43 1 2 17 63 107.4 70.7 29.86 11.56 0.00 0.00 0.00 0.000
3:57am 43 1 2 17 63 107.4 70.7 29.86 11.56 0.00 0.00 0.00 0.000
3:58am 43 0 2 17 63 107.4 70.7 29.87 11.56 0.00 0.00 0.00 0.000
3:58am 43 0 2 17 64 107.4 70.7 29.87 11.56 0.00 0.00 0.00 0.000
4:00am 43 0 2 17 64 107.4 70.7 29.86 11.56 0.00 0.00 0.00 0.000
4:01am 43 0 0 17 64 107.4 70.7 29.87 11.56 0.00 0.00 0.00 0.000
4:02am 43 0 0 17 64 107.4 70.7 29.87 11.56 0.00 0.00 0.00 0.000
4:03am 43 0 0 17 64 107.4 70.7 29.87 11.56 0.00 0.00 0.00 0.000
4:04am 43 0 0 17 64 107.4 70.7 29.87 11.56 0.00 0.00 0.00 0.000
4:05am 43 0 0 17 64 107.4 70.7 29.88 11.56 0.00 0.00 0.00 0.000
4:06am 43 0 0 17 64 107.4 70.7 29.88 11.56 0.00 0.00 0.00 0.000
4:07am 43 0 0 17 65 107.4 70.7 29.88 11.56 0.00 0.00 0.00 0.000
4:08am 43 0 0 17 65 107.4 70.7 29.88 11.56 0.00 0.00 0.00 0.000
4:09am 43 0 0 17 65 107.4 70.7 29.88 11.56 0.00 0.00 0.00 0.000
4:10am 43 0 0 17 65 107.4 70.7 29.88 11.56 0.00 0.00 0.00 0.000
4:11am 43 0 0 17 65 107.1 70.7 29.88 11.56 0.00 0.00 0.00 0.000
4:12am 43 2 2 17 65 107.1 70.7 29.88 11.56 0.00 0.00 0.00 0.000
4:13am 43 2 2 17 64 107.1 70.7 29.88 11.56 0.00 0.00 0.00 0.000
4:14am 43 2 2 17 64 107.1 70.6 29.88 11.56 0.00 0.00 0.00 0.000
4:15am 43 2 3 17 64 107.1 70.6 29.88 11.56 0.00 0.00 0.00 0.000
4:16am 43 2 2 17 64 107.1 70.6 29.88 11.56 0.00 0.00 0.00 0.000
4:17am 43 2 3 17 64 107.1 70.6 29.87 11.56 0.00 0.00 0.00 0.000
4:18am 43 4 4 17 64 107.1 70.6 29.87 11.56 0.00 0.00 0.00 0.000
4:19am 9 4 5 17 63 107.1 70.5 29.87 11.56 0.00 0.00 0.00 0.000
4:20am 8 4 5 17 63 107.1 70.5 29.87 11.56 0.00 0.00 0.00 0.000
4:21am 8 2 5 17 63 107.1 70.5 29.87 11.56 0.00 0.00 0.00 0.000
4:21am 8 3 5 17 62 107.1 70.4 29.87 11.56 0.00 0.00 0.00 0.000
4:23am 9 3 5 17 62 107.1 70.4 29.87 11.56 0.00 0.00 0.00 0.000
4:24am 353 4 5 17 62 107.1 70.3 29.87 11.56 0.00 0.00 0.00 0.000
4:25am 353 4 5 17 62 107.1 70.3 29.87 11.56 0.00 0.00 0.00 0.000
4:26am 352 5 5 17 61 106.8 70.2 29.87 11.56 0.00 0.00 0.00 0.000
4:27am 349 4 5 17 61 106.8 70.1 29.87 11.56 0.00 0.00 0.00 0.000
4:28am 343 5 5 17 61 106.8 70.1 29.87 11.56 0.00 0.00 0.00 0.000
4:29am 342 4 5 17 61 106.8 70.0 29.87 11.56 0.00 0.00 0.00 0.000
4:30am 343 5 5 17 61 106.8 70.0 29.87 11.56 0.00 0.00 0.00 0.000
4:31am 343 5 5 17 61 106.8 70.0 29.87 11.56 0.00 0.00 0.00 0.000
4:32am 343 5 6 17 61 106.8 70.0 29.87 11.56 0.00 0.00 0.00 0.000
4:33am 343 5 6 17 61 106.8 70.0 29.87 11.56 0.00 0.00 0.00 0.000
4:34am 343 3 6 17 61 106.8 70.0 29.87 11.56 0.00 0.00 0.00 0.000
4:35am 342 2 6 17 61 106.8 70.2 29.87 11.56 0.00 0.00 0.00 0.000
4:36am 342 2 6 17 61 106.8 70.2 29.87 11.56 0.00 0.00 0.00 0.000
4:37am 342 2 6 17 61 106.8 70.2 29.87 11.56 0.00 0.00 0.00 0.000
4:38am 343 2 6 17 60 106.8 70.3 29.87 11.56 0.00 0.00 0.00 0.000
4:39am 343 2 6 17 60 106.8 70.4 29.87 11.56 0.00 0.00 0.00 0.000
4:40am 343 2 6 17 60 106.8 70.5 29.87 11.56 0.00 0.00 0.00 0.000
4:41am 343 0 6 17 59 106.8 70.7 29.87 11.56 0.00 0.00 0.00 0.000
4:42am 342 0 6 17 59 106.8 70.9 29.87 11.56 0.00 0.00 0.00 0.000
4:43am 342 0 6 17 59 106.8 71.0 29.87 11.56 0.00 0.00 0.00 0.000
4:44am 342 0 6 17 59 106.5 71.1 29.87 11.56 0.00 0.00 0.00 0.000
4:45am 343 0 6 17 59 106.5 71.2 29.87 11.56 0.00 0.00 0.00 0.000
4:46am 343 0 0 17 59 106.5 71.3 29.87 11.56 0.00 0.00 0.00 0.000
4:47am 342 0 0 17 59 106.5 71.4 29.87 11.56 0.00 0.00 0.00 0.000
4:48am 343 0 0 17 60 106.5 71.6 29.87 11.56 0.00 0.00 0.00 0.000
4:49am 342 0 0 17 60 106.5 71.6 29.86 11.56 0.00 0.00 0.00 0.000
4:50am 342 0 0 17 60 106.5 71.7 29.87 11.56 0.00 0.00 0.00 0.000
4:51am 343 0 0 17 60 106.5 71.8 29.86 11.56 0.00 0.00 0.00 0.000
4:51am 343 0 0 17 60 106.5 71.9 29.86 11.56 0.00 0.00 0.00 0.000
4:53am 343 0 0 17 60 106.5 72.0 29.87 11.56 0.00 0.00 0.00 0.000
4:54am 342 0 1 17 59 106.5 72.0 29.87 11.56 0.00 0.00 0.00 0.000
4:55am 342 1 2 17 59 106.5 72.0 29.87 11.56 0.00 0.00 0.00 0.000
4:56am 3 3 3 17 57 106.5 72.0 29.87 11.56 0.00 0.00 0.00 0.000
4:57am 3 1 3 17 57 106.5 72.1 29.87 11.56 0.00 0.00 0.00 0.000
4:58am 3 2 3 17 57 106.3 72.2 29.87 11.56 0.00 0.00 0.00 0.000
4:59am 3 0 3 17 57 106.3 72.3 29.87 11.56 0.00 0.00 0.00 0.000
5:00am 3 0 3 17 57 106.3 72.4 29.87 11.56 0.00 0.00 0.00 0.000
5:01am 3 0 0 17 58 106.3 72.5 29.88 11.56 0.00 0.00 0.00 0.000
5:02am 3 0 0 17 58 106.3 72.6 29.87 11.56 0.00 0.00 0.00 0.000
5:03am 3 0 0 16 58 106.3 72.6 29.87 11.56 0.00 0.00 0.00 0.000
5:04am 3 0 0 16 58 106.0 72.7 29.87 11.56 0.00 0.00 0.00 0.000
5:05am 3 0 0 16 59 106.0 72.7 29.88 11.56 0.00 0.00 0.00 0.000
5:06am 3 0 0 16 58 106.0 72.8 29.88 11.56 0.00 0.00 0.00 0.000
5:07am 3 0 0 16 58 106.0 72.8 29.88 11.56 0.00 0.00 0.00 0.000
5:08am 3 0 0 16 58 105.7 72.8 29.88 11.56 0.00 0.00 0.00 0.000
5:09am 3 0 0 16 58 105.7 72.8 29.88 11.56 0.00 0.00 0.00 0.000
5:10am 3 0 0 16 58 105.7 72.9 29.88 11.56 0.00 0.00 0.00 0.000
5:11am 3 0 0 16 58 105.7 72.9 29.88 11.56 0.00 0.00 0.00 0.000
5:12am 3 0 0 15 59 105.5 72.9 29.88 11.56 0.00 0.00 0.00 0.000
5:13am 3 0 0 15 59 105.5 72.9 29.88 11.56 0.00 0.00 0.00 0.000
5:14am 3 0 0 15 59 105.2 72.9 29.88 11.56 0.00 0.00 0.00 0.000
5:15am 3 0 0 15 59 105.2 72.9 29.88 11.56 0.00 0.00 0.00 0.000
5:16am 3 0 0 15 59 105.2 72.9 29.88 11.56 0.00 0.00 0.00 0.000
5:17am 3 0 0 15 59 105.0 72.9 29.88 11.56 0.00 0.00 0.00 0.000
5:18am 3 0 0 15 59 105.0 72.9 29.88 11.56 0.00 0.00 0.00 0.000
5:19am 3 0 0 15 59 105.0 72.9 29.88 11.56 0.00 0.00 0.00 0.000
5:20am 3 0 0 15 59 104.7 72.9 29.88 11.56 0.00 0.00 0.00 0.000
5:21am 3 0 1 15 58 104.7 72.9 29.87 11.56 0.00 0.00 0.00 0.000
5:22am 3 0 1 15 58 104.4 72.9 29.87 11.56 0.00 0.00 0.00 0.000
5:22am 3 0 1 15 58 104.4 72.9 29.87 11.56 0.00 0.00 0.00 0.000
5:24am 3 2 2 15 58 104.4 72.8 29.87 11.56 0.00 0.00 0.00 0.000
5:25am 3 2 2 15 57 104.4 72.7 29.87 11.56 0.00 0.00 0.00 0.000
5:26am 3 2 2 15 56 104.2 72.7 29.87 11.56 0.00 0.00 0.00 0.000
5:27am 3 1 2 15 55 104.2 72.6 29.87 11.56 0.00 0.00 0.00 0.000
5:28am 3 1 2 15 55 103.9 72.5 29.88 11.56 0.00 0.00 0.00 0.000
5:29am 3 0 2 15 54 103.9 72.5 29.88 11.56 0.00 0.00 0.00 0.000
5:30am 3 2 2 15 54 103.9 72.5 29.88 11.56 0.00 0.00 0.00 0.000
5:31am 3 0 2 15 53 103.6 72.4 29.88 11.56 0.00 0.00 0.00 0.000
5:32am 3 0 2 15 53 103.6 72.4 29.88 11.56 0.00 0.00 0.00 0.000
5:33am 3 0 2 15 53 103.6 72.3 29.88 11.56 0.00 0.00 0.00 0.000
5:34am 3 0 2 15 53 103.6 72.3 29.88 11.56 0.00 0.00 0.00 0.000
5:35am 3 0 2 15 53 103.4 72.3 29.88 11.56 0.00 0.00 0.00 0.000
5:36am 3 0 2 15 53 103.1 72.3 29.88 11.56 0.00 0.00 0.00 0.000
5:37am 3 0 2 15 53 103.1 72.2 29.88 11.56 0.00 0.00 0.00 0.000
5:38am 3 0 2 15 52 102.9 72.2 29.88 11.56 0.00 0.00 0.00 0.000
5:39am 3 0 2 15 52 102.9 72.2 29.88 11.56 0.00 0.00 0.00 0.000
5:40am 3 0 2 15 52 102.9 72.1 29.88 11.56 0.00 0.00 0.00 0.000
5:41am 3 0 2 15 52 102.6 72.1 29.88 11.56 0.00 0.00 0.00 0.000
5:42am 3 0 2 15 52 102.6 72.1 29.88 11.56 0.00 0.00 0.00 0.000
5:42am 3 0 2 15 52 102.6 72.1 29.88 11.56 0.00 0.00 0.00 0.000
5:44am 3 0 2 15 53 102.3 72.1 29.88 11.56 0.00 0.00 0.00 0.000
5:45am 3 0 2 15 53 102.1 72.1 29.88 11.56 0.00 0.00 0.00 0.000
5:46am 3 2 2 15 52 102.1 72.1 29.88 11.56 0.00 0.00 0.00 0.000
5:47am 3 2 2 15 52 102.1 72.0 29.88 11.56 0.00 0.00 0.00 0.000
5:48am 3 2 3 15 52 101.8 72.0 29.88 11.56 0.00 0.00 0.00 0.000
5:49am 3 3 3 15 51 101.8 72.0 29.88 11.56 0.00 0.00 0.00 0.000
5:50am 3 2 3 15 51 101.5 72.0 29.88 11.56 0.00 0.00 0.00 0.000
5:51am 3 3 3 15 51 101.5 72.0 29.88 11.56 0.00 0.00 0.00 0.000
5:52am 3 2 3 15 51 101.3 72.0 29.88 11.56 0.00 0.00 0.00 0.000
5:53am 3 2 3 15 50 101.3 71.9 29.88 11.56 0.00 0.00 0.00 0.000
5:54am 3 1 3 15 50 101.0 71.9 29.88 11.56 0.00 0.00 0.00 0.000
5:55am 3 1 3 15 51 101.0 71.9 29.88 11.56 0.00 0.00 0.00 0.000
5:56am 3 0 3 15 51 100.8 71.9 29.88 11.56 0.00 0.00 0.00 0.000
5:57am 3 0 3 15 51 100.8 71.9 29.88 11.56 0.00 0.00 0.00 0.000
5:58am 3 0 3 15 51 100.8 71.9 29.88 11.56 0.00 0.00 0.00 0.000
5:59am 3 0 3 15 51 100.5 71.9 29.88 11.56 0.00 0.00 0.00 0.000
6:00am 3 0 3 15 51 100.5 71.9 29.88 11.56 0.00 0.00 0.00 0.000
6:01am 3 0 0 15 52 100.5 71.9 29.89 11.56 0.00 0.00 0.00 0.000
6:02am 3 0 0 15 52 100.3 71.9 29.89 11.56 0.00 0.00 0.00 0.000
6:03am 3 0 0 15 52 100.3 72.0 29.89 11.56 0.00 0.00 0.00 0.000
6:04am 3 0 0 15 52 100.3 72.0 29.89 11.56 0.00 0.00 0.00 0.000
6:05am 3 0 0 15 52 100.1 72.0 29.89 11.56 0.00 0.00 0.00 0.000
6:06am 3 0 0 15 52 99.8 72.0 29.89 11.56 0.00 0.00 0.00 0.000
6:07am 3 0 0 15 52 99.8 72.0 29.89 11.56 0.00 0.00 0.00 0.000
6:08am 3 0 0 15 52 99.8 72.0 29.89 11.56 0.00 0.00 0.00 0.000
6:09am 3 0 0 15 52 99.6 72.0 29.89 11.56 0.00 0.00 0.00 0.000
6:10am 3 0 0 15 52 99.6 72.0 29.89 11.56 0.00 0.00 0.00 0.000
6:11am 3 1 1 15 52 99.6 72.0 29.89 11.56 0.00 0.00 0.00 0.000
6:12am 3 1 2 16 52 99.3 72.0 29.89 11.56 0.00 0.00 0.00 0.000
6:13am 3 0 2 16 53 99.3 72.1 29.89 11.56 0.00 0.00 0.00 0.000
6:14am 3 0 2 16 54 99.3 72.1 29.89 11.56 0.00 0.00 0.00 0.000
6:15am 3 0 2 16 54 99.1 72.2 29.89 11.56 0.00 0.00 0.00 0.000
6:16am 3 0 0 16 55 99.1 72.2 29.90 11.56 0.00 0.00 0.00 0.000
6:17am 3 0 0 16 55 99.1 72.3 29.90 11.56 0.00 0.00 0.00 0.000
6:18am 3 0 0 16 56 98.9 72.4 29.90 11.56 0.00 0.00 0.00 0.000
6:19am 3 0 0 16 56 98.9 72.4 29.90 11.56 0.00 0.00 0.00 0.000
6:20am 3 0 0 16 56 98.9 72.4 29.90 11.56 0.00 0.00 0.00 0.000
6:21am 3 0 1 16 57 98.9 72.5 29.90 11.56 0.00 0.00 0.00 0.000
6:22am 3 0 1 16 57 98.6 72.5 29.90 11.56 0.00 0.00 0.00 0.000
6:23am 3 0 1 16 58 98.6 72.6 29.90 11.56 0.00 0.00 0.00 0.000
6:24am 3 0 1 16 59 98.4 72.7 29.90 11.56 0.00 0.00 0.00 0.000
6:25am 3 0 1 16 59 98.4 72.8 29.90 11.56 0.00 0.00 0.00 0.000
6:26am 3 0 1 16 60 98.4 72.9 29.90 11.56 0.00 0.00 0.00 0.000
6:27am 3 0 1 16 60 98.4 73.0 29.90 11.56 0.00 0.00 0.00 0.000
6:28am 3 0 1 16 60 98.1 73.1 29.90 11.56 0.00 0.00 0.00 0.000
6:29am 3 0 1 16 61 98.1 73.1 29.90 11.56 0.00 0.00 0.00 0.000
6:30am 3 0 1 16 61 98.1 73.2 29.90 11.56 0.00 0.00 0.00 0.000
6:31am 3 0 0 17 61 97.9 73.3 29.90 11.56 0.00 0.00 0.00 0.000
6:32am 3 0 0 17 61 97.9 73.3 29.90 11.56 0.00 0.00 0.00 0.000
6:33am 3 0 0 17 60 97.9 73.3 29.90 11.56 0.00 0.00 0.00 0.000
6:34am 3 0 0 17 60 97.7 73.4 29.90 11.56 0.00 0.00 0.00 0.000
6:35am 3 0 0 17 60 97.7 73.4 29.90 11.56 0.00 0.00 0.00 0.000
6:36am 3 0 0 17 60 97.7 73.5 29.90 11.56 0.00 0.00 0.00 0.000
6:37am 3 0 0 17 60 97.7 73.6 29.90 11.56 0.00 0.00 0.00 0.000
6:38am 3 0 0 17 60 97.4 73.6 29.90 11.56 0.00 0.00 0.00 0.000
6:39am 3 0 0 17 60 97.4 73.7 29.90 11.56 0.00 0.00 0.00 0.000
6:40am 3 0 0 17 61 97.4 73.7 29.90 11.56 0.00 0.00 0.00 0.000
6:41am 3 0 0 17 61 97.2 73.8 29.90 11.56 0.00 0.00 0.00 0.000
6:42am 3 0 0 17 61 97.2 73.8 29.91 11.56 0.00 0.00 0.00 0.000
6:43am 3 0 0 17 61 97.2 73.9 29.91 11.56 0.00 0.00 0.00 0.000
6:44am 3 0 0 17 61 97.2 74.0 29.91 11.56 0.00 0.00 0.00 0.000
6:45am 3 0 0 17 61 97.0 74.0 29.90 11.56 0.00 0.00 0.00 0.000
6:46am 3 0 0 17 61 97.0 74.1 29.90 11.56 0.00 0.00 0.00 0.000
6:47am 3 0 0 17 62 97.0 74.1 29.90 11.56 0.00 0.00 0.00 0.000
6:48am 3 0 0 17 62 97.0 74.3 29.90 11.56 0.00 0.00 0.00 0.000
6:49am 3 0 0 17 62 96.7 74.4 29.90 11.56 0.00 0.00 0.00 0.000
6:50am 3 0 0 17 62 96.7 74.5 29.90 11.56 0.00 0.00 0.00 0.000
6:51am 3 0 0 18 62 96.7 74.5 29.90 11.56 0.00 0.00 0.00 0.000
6:52am 3 0 0 18 62 96.7 74.6 29.90 11.56 0.00 0.00 0.00 0.000
6:53am 3 0 0 18 62 96.7 74.7 29.90 11.56 0.00 0.00 0.00 0.000
6:54am 3 0 0 18 61 96.5 74.7 29.90 11.56 0.00 0.00 0.00 0.000
6:55am 3 0 0 18 61 96.5 74.8 29.90 11.56 0.00 0.00 0.00 0.000
6:56am 3 0 0 18 61 96.5 74.9 29.90 11.56 0.00 0.00 0.00 0.000
6:57am 3 0 0 18 61 96.2 75.0 29.90 11.56 0.00 0.00 0.00 0.000
6:58am 3 0 0 18 61 96.2 75.0 29.90 11.56 0.00 0.00 0.00 0.000
6:59am 3 0 0 18 61 96.2 75.1 29.90 11.56 0.00 0.00 0.00 0.000
7:00am 3 0 0 18 62 96.0 75.2 29.90 11.56 0.00 0.00 0.00 0.000
7:01am 3 0 0 18 62 96.0 75.3 29.92 11.56 0.00 0.00 0.00 0.000
7:02am 3 0 0 18 62 96.0 75.4 29.92 11.56 0.00 0.00 0.00 0.000
7:03am 3 0 0 18 62 96.0 75.5 29.92 11.56 0.00 0.00 0.00 0.000
7:04am 3 0 0 18 62 95.8 75.6 29.91 11.56 0.00 0.00 0.00 0.000
7:05am 3 0 0 18 62 95.8 75.7 29.92 11.56 0.00 0.00 0.00 0.000
7:06am 3 0 0 18 62 95.8 75.7 29.92 11.56 0.00 0.00 0.00 0.000
7:07am 3 0 0 18 62 95.8 75.8 29.92 11.56 0.00 0.00 0.00 0.000
7:08am 3 0 0 18 62 95.8 75.9 29.92 11.56 0.00 0.00 0.00 0.000
7:09am 3 0 0 18 62 95.8 75.9 29.92 11.56 0.00 0.00 0.00 0.000
7:10am 3 0 0 18 62 95.6 76.0 29.92 11.56 0.00 0.00 0.00 0.000
7:11am 3 0 0 19 62 95.6 76.1 29.92 11.56 0.00 0.00 0.00 0.000
7:12am 3 0 0 19 62 95.3 76.2 29.92 11.56 0.00 0.00 0.00 0.000
7:13am 3 0 0 19 62 95.3 76.3 29.92 11.56 0.00 0.00 0.00 0.000
7:14am 3 0 0 19 62 95.3 76.3 29.92 11.56 0.00 0.00 0.00 0.000
7:15am 3 0 0 19 62 95.3 76.4 29.92 11.56 0.00 0.00 0.00 0.000
7:16am 3 0 0 19 62 95.3 76.5 29.92 11.56 0.00 0.00 0.00 0.000
7:17am 3 0 0 19 62 95.1 76.6 29.92 11.56 0.00 0.00 0.00 0.000
7:18am 3 0 0 19 62 95.1 76.7 29.92 11.56 0.00 0.00 0.00 0.000
7:19am 3 0 0 19 62 95.1 76.8 29.92 11.56 0.00 0.00 0.00 0.000
7:20am 3 0 0 19 61 95.1 76.9 29.92 11.56 0.00 0.00 0.00 0.000
7:21am 3 0 0 19 61 95.1 76.9 29.92 11.56 0.00 0.00 0.00 0.000
7:22am 3 0 0 19 61 95.1 77.0 29.92 11.56 0.00 0.00 0.00 0.000
7:23am 3 0 0 19 61 94.9 77.1 29.92 11.56 0.00 0.00 0.00 0.000
7:24am 3 0 0 19 61 94.9 77.2 29.92 11.56 0.00 0.00 0.00 0.000
7:25am 3 0 0 19 61 94.9 77.4 29.92 11.56 0.00 0.00 0.00 0.000
7:26am 3 0 0 19 60 94.9 77.4 29.92 11.56 0.00 0.00 0.00 0.000
7:27am 3 0 0 19 60 94.7 77.6 29.92 11.56 0.00 0.00 0.00 0.000
7:28am 3 0 0 19 60 94.7 77.7 29.92 11.56 0.00 0.00 0.00 0.000
7:29am 3 0 0 19 60 94.7 77.8 29.92 11.56 0.00 0.00 0.00 0.000
7:29am 3 0 0 19 60 94.7 77.8 29.92 11.56 0.00 0.00 0.00 0.000
7:31am 3 0 0 19 60 94.7 78.0 29.92 11.56 0.00 0.00 0.00 0.000
7:32am 3 0 0 20 60 94.5 78.1 29.92 11.56 0.00 0.00 0.00 0.000
7:33am 3 0 0 20 59 94.5 78.2 29.92 11.56 0.00 0.00 0.00 0.000
7:34am 3 0 0 20 59 94.5 78.3 29.92 11.56 0.00 0.00 0.00 0.000
7:35am 3 0 0 20 59 94.5 78.4 29.92 11.56 0.00 0.00 0.00 0.000
7:36am 3 0 0 20 59 94.5 78.5 29.92 11.56 0.00 0.00 0.00 0.000
7:37am 3 0 0 20 58 94.2 78.6 29.92 11.56 0.00 0.00 0.00 0.000
7:38am 3 0 0 20 58 94.2 78.7 29.92 11.56 0.00 0.00 0.00 0.000
7:39am 3 0 0 20 58 94.2 78.8 29.92 11.56 0.00 0.00 0.00 0.000
7:40am 3 0 0 20 58 94.2 78.9 29.92 11.56 0.00 0.00 0.00 0.000
7:41am 3 1 2 20 58 94.0 79.0 29.92 11.56 0.00 0.00 0.00 0.000
7:42am 3 0 2 20 58 94.0 79.0 29.92 11.56 0.00 0.00 0.00 0.000
7:43am 3 1 2 20 58 94.0 79.0 29.92 11.56 0.00 0.00 0.00 0.000
7:43am 3 1 2 20 58 94.0 79.1 29.92 11.56 0.00 0.00 0.00 0.000
7:45am 3 1 2 20 58 94.0 79.2 29.92 11.56 0.00 0.00 0.00 0.000
7:46am 3 0 2 20 57 94.0 79.4 29.92 11.56 0.00 0.00 0.00 0.000
7:47am 3 0 2 20 57 93.8 79.5 29.92 11.56 0.00 0.00 0.00 0.000
7:48am 3 0 2 20 57 93.8 79.6 29.92 11.56 0.00 0.00 0.00 0.000
7:49am 3 0 2 20 56 93.8 79.7 29.92 11.56 0.00 0.00 0.00 0.000
7:50am 3 0 2 20 56 93.8 79.8 29.92 11.56 0.00 0.00 0.00 0.000
7:51am 3 0 2 20 56 93.6 79.9 29.92 11.56 0.00 0.00 0.00 0.000
7:52am 3 0 2 20 56 93.6 80.0 29.92 11.56 0.00 0.00 0.00 0.000
7:53am 3 0 2 20 56 93.6 80.0 29.92 11.56 0.00 0.00 0.00 0.000
7:54am 3 0 2 20 56 93.6 80.1 29.92 11.56 0.00 0.00 0.00 0.000
7:55am 3 2 3 20 56 93.6 80.2 29.92 11.56 0.00 0.00 0.00 0.000
7:56am 3 1 3 20 56 93.4 80.3 29.92 11.56 0.00 0.00 0.00 0.000
7:57am 3 2 3 20 56 93.4 80.5 29.92 11.56 0.00 0.00 0.00 0.000
7:57am 3 2 3 20 55 93.4 80.5 29.92 11.56 0.00 0.00 0.00 0.000
7:59am 3 3 3 20 55 93.4 80.6 29.92 11.56 0.00 0.00 0.00 0.000
8:00am 3 0 3 20 55 93.4 80.7 29.92 11.56 0.00 0.00 0.00 0.000
8:01am 3 1 2 20 55 93.4 80.8 29.92 11.56 0.00 0.00 0.00 0.000
8:02am 3 0 2 21 55 93.4 80.8 29.92 11.56 0.00 0.00 0.00 0.000
8:03am 3 0 2 21 55 93.1 80.9 29.92 11.56 0.00 0.00 0.00 0.000
8:03am 3 0 2 21 54 93.1 81.0 29.92 11.56 0.00 0.00 0.00 0.000
8:05am 3 0 2 21 54 93.1 81.0 29.92 11.56 0.00 0.00 0.00 0.000
8:06am 3 0 2 21 54 93.1 81.1 29.92 11.56 0.00 0.00 0.00 0.000
8:07am 3 1 2 21 54 93.1 81.2 29.92 11.56 0.00 0.00 0.00 0.000
8:08am 3 0 2 21 53 93.1 81.2 29.92 11.56 0.00 0.00 0.00 0.000
8:09am 3 0 2 21 53 92.9 81.3 29.92 11.56 0.00 0.00 0.00 0.000
8:10am 3 2 2 21 53 92.9 81.4 29.92 11.56 0.00 0.00 0.00 0.000
8:11am 3 0 2 21 53 92.9 81.5 29.92 11.56 0.00 0.00 0.00 0.000
8:12am 3 1 2 21 53 92.9 81.6 29.92 11.56 0.00 0.00 0.00 0.000
8:13am 3 1 2 21 53 92.7 81.7 29.92 11.56 0.00 0.00 0.00 0.000
8:14am 3 2 2 21 53 92.7 81.8 29.92 11.56 0.00 0.00 0.00 0.000
8:15am 3 2 3 21 53 92.7 81.9 29.92 11.56 0.00 0.00 0.00 0.000
8:16am 3 2 2 21 53 92.7 82.0 29.92 11.56 0.00 0.00 0.00 0.000
8:17am 3 0 2 21 52 92.7 82.1 29.92 11.56 0.00 0.00 0.00 0.000
8:18am 3 1 2 21 52 92.7 82.2 29.92 11.56 0.00 0.00 0.00 0.000
8:19am 3 1 2 21 52 92.7 82.3 29.92 11.56 0.00 0.00 0.00 0.000
8:20am 3 0 2 21 52 92.7 82.4 29.92 11.56 0.00 0.00 0.00 0.000
8:21am 3 3 3 21 52 92.5 82.4 29.92 11.56 0.00 0.00 0.00 0.000
8:21am 3 1 3 21 52 92.5 82.5 29.92 11.56 0.00 0.00 0.00 0.000
8:23am 3 0 3 21 52 92.5 82.6 29.92 11.56 0.00 0.00 0.00 0.000
8:24am 3 0 3 21 52 92.5 82.7 29.92 11.56 0.00 0.00 0.00 0.000
8:24am 3 1 3 21 52 92.5 82.8 29.92 11.56 0.00 0.00 0.00 0.000
8:26am 3 2 3 21 52 92.3 82.9 29.92 11.56 0.00 0.00 0.00 0.000
8:27am 3 1 3 21 52 92.3 83.0 29.92 11.56 0.00 0.00 0.00 0.000
8:28am 3 1 3 21 52 92.3 83.2 29.92 11.56 0.00 0.00 0.00 0.000
8:29am 3 2 3 21 51 92.3 83.2 29.92 11.56 0.00 0.00 0.00 0.000
8:29am 3 2 3 21 51 92.3 83.3 29.93 11.56 0.00 0.00 0.00 0.000
8:31am 3 2 3 21 51 92.3 83.5 29.93 11.56 0.00 0.00 0.00 0.000
8:32am 3 0 3 21 51 92.3 83.5 29.92 11.56 0.00 0.00 0.00 0.000
8:33am 3 0 3 22 51 92.0 83.6 29.92 11.56 0.00 0.00 0.00 0.000
8:34am 3 0 3 22 51 92.0 83.7 29.92 11.56 0.00 0.00 0.00 0.000
8:35am 3 0 3 22 50 92.0 83.7 29.92 11.56 0.00 0.00 0.00 0.000
8:36am 3 0 3 22 50 92.0 83.7 29.92 11.56 0.00 0.00 0.00 0.000
8:37am 83 2 4 22 50 92.0 83.8 29.92 11.56 0.00 0.00 0.00 0.000
8:38am 84 2 4 22 49 92.0 83.9 29.92 11.56 0.00 0.00 0.00 0.000
8:39am 84 3 4 22 47 92.0 83.9 29.92 11.56 0.00 0.00 0.00 0.000
8:40am 128 2 4 22 47 91.8 83.9 29.92 11.56 0.00 0.00 0.00 0.000
8:41am 132 2 4 22 46 91.8 83.9 29.92 11.56 0.00 0.00 0.00 0.000
8:42am 132 0 4 22 45 91.8 83.9 29.92 11.56 0.00 0.00 0.00 0.000
8:43am 132 0 4 22 44 91.8 84.0 29.92 11.56 0.00 0.00 0.00 0.000
8:43am 132 2 4 22 44 91.8 84.1 29.92 11.56 0.00 0.00 0.00 0.000
8:45am 132 1 4 22 45 91.8 84.3 29.92 11.56 0.00 0.00 0.00 0.000
8:46am 132 0 2 22 45 91.6 84.4 29.92 11.56 0.00 0.00 0.00 0.000
8:47am 132 0 2 22 45 91.6 84.6 29.92 11.56 0.00 0.00 0.00 0.000
8:48am 132 1 2 22 45 91.6 84.7 29.92 11.56 0.00 0.00 0.00 0.000
8:48am 134 0 3 22 45 91.6 84.8 29.92 11.56 0.00 0.00 0.00 0.000
8:50am 134 0 3 22 45 91.6 85.0 29.92 11.56 0.00 0.00 0.00 0.000
8:51am 134 0 3 22 45 91.6 85.0 29.92 11.56 0.00 0.00 0.00 0.000
8:52am 134 0 3 22 45 91.6 85.2 29.92 11.56 0.00 0.00 0.00 0.000
8:53am 134 1 3 22 45 91.6 85.3 29.92 11.56 0.00 0.00 0.00 0.000
8:54am 133 2 3 22 45 91.6 85.4 29.92 11.56 0.00 0.00 0.00 0.000
8:55am 133 1 3 22 44 91.4 85.6 29.92 11.56 0.00 0.00 0.00 0.000
8:56am 133 0 3 22 44 91.4 85.6 29.92 11.56 0.00 0.00 0.00 0.000
8:57am 134 0 3 22 44 91.4 85.8 29.91 11.56 0.00 0.00 0.00 0.000
8:58am 134 0 3 22 44 91.4 85.9 29.91 11.56 0.00 0.00 0.00 0.000
8:59am 134 0 3 22 43 91.4 86.0 29.91 11.56 0.00 0.00 0.00 0.000
9:00am 133 0 3 22 43 91.4 86.1 29.91 11.56 0.00 0.00 0.00 0.000
9:01am 133 0 0 22 43 91.2 86.2 29.92 11.56 0.00 0.00 0.00 0.000
9:02am 133 1 1 22 43 91.2 86.4 29.92 11.56 0.00 0.00 0.00 0.000
9:03am 134 0 1 22 43 91.2 86.5 29.92 11.56 0.00 0.00 0.00 0.000
9:04am 134 0 1 22 43 91.2 86.7 29.92 11.56 0.00 0.00 0.00 0.000
9:05am 134 0 1 22 43 91.2 86.8 29.92 11.56 0.00 0.00 0.00 0.000
9:06am 134 0 1 22 42 91.2 86.9 29.92 11.56 0.00 0.00 0.00 0.000
9:07am 155 0 1 23 42 91.2 87.0 29.92 11.56 0.00 0.00 0.00 0.000
9:08am 155 0 1 23 41 91.2 87.1 29.92 11.56 0.00 0.00 0.00 0.000
9:09am 168 1 2 23 41 91.2 87.2 29.92 11.56 0.00 0.00 0.00 0.000
9:10am 169 0 2 23 40 91.0 87.3 29.92 11.56 0.00 0.00 0.00 0.000
9:11am 168 2 2 23 40 91.0 87.4 29.92 11.56 0.00 0.00 0.00 0.000
9:12am 192 3 4 22 40 91.0 87.4 29.91 11.56 0.00 0.00 0.00 0.000
9:13am 184 4 5 22 40 91.0 87.6 29.92 11.56 0.00 0.00 0.00 0.000
9:14am 191 2 5 22 40 91.0 87.8 29.91 11.56 0.00 0.00 0.00 0.000
9:15am 190 4 5 22 40 91.0 87.9 29.91 11.56 0.00 0.00 0.00 0.000
9:16am 189 2 4 22 39 90.7 88.0 29.91 11.56 0.00 0.00 0.00 0.000
9:17am 189 2 4 22 39 90.7 88.1 29.91 11.56 0.00 0.00 0.00 0.000
9:18am 197 1 4 22 39 90.7 88.2 29.91 11.56 0.00 0.00 0.00 0.000
9:19am 197 0 4 22 38 90.7 88.3 29.91 11.56 0.00 0.00 0.00 0.000
9:20am 197 0 4 22 38 90.7 88.4 29.91 11.56 0.00 0.00 0.00 0.000
9:21am 197 0 4 23 38 90.7 88.5 29.91 11.56 0.00 0.00 0.00 0.000
9:22am 197 2 4 23 38 90.7 88.7 29.90 11.56 0.00 0.00 0.00 0.000
9:23am 197 0 4 23 39 90.7 89.0 29.90 11.56 0.00 0.00 0.00 0.000
9:24am 197 0 4 23 38 90.7 89.2 29.90 11.56 0.00 0.00 0.00 0.000
9:25am 197 1 4 23 36 90.7 89.4 29.90 11.56 0.00 0.00 0.00 0.000
9:26am 197 1 4 23 36 90.7 89.5 29.90 11.56 0.00 0.00 0.00 0.000
9:27am 197 2 4 23 36 90.5 89.7 29.90 11.56 0.00 0.00 0.00 0.000
9:28am 197 3 4 23 36 90.5 89.9 29.90 11.56 0.00 0.00 0.00 0.000
9:29am 197 3 4 23 35 90.5 90.1 29.90 11.56 0.00 0.00 0.00 0.000
9:30am 195 4 4 23 34 90.5 90.3 29.90 11.56 0.00 0.00 0.00 0.000
9:31am 187 4 5 23 34 90.5 90.4 29.90 11.56 0.00 0.00 0.00 0.000
9:32am 188 3 5 23 33 90.5 90.5 29.90 11.56 0.00 0.00 0.00 0.000
9:33am 188 4 5 23 33 90.5 90.7 29.90 11.56 0.00 0.00 0.00 0.000
9:34am 188 3 5 23 33 90.3 90.8 29.90 11.56 0.00 0.00 0.00 0.000
9:34am 188 3 5 23 32 90.3 90.9 29.90 11.56 0.00 0.00 0.00 0.000
9:36am 191 4 5 23 32 90.3 91.0 29.90 11.56 0.00 0.00 0.00 0.000
9:37am 192 2 5 23 32 90.3 91.1 29.90 11.56 0.00 0.00 0.00 0.000
9:38am 194 1 5 23 32 90.3 91.2 29.90 11.56 0.00 0.00 0.00 0.000
9:38am 191 4 5 23 32 90.3 91.4 29.90 11.56 0.00 0.00 0.00 0.000
9:40am 191 3 5 23 32 90.3 91.5 29.90 11.56 0.00 0.00 0.00 0.000
9:41am 191 4 5 23 33 90.3 91.8 29.90 11.56 0.00 0.00 0.00 0.000
9:42am 195 2 5 23 32 90.3 92.0 29.90 11.56 0.00 0.00 0.00 0.000
9:43am 195 0 5 23 31 90.3 92.1 29.90 11.56 0.00 0.00 0.00 0.000
9:44am 185 5 5 23 31 90.3 92.2 29.90 11.56 0.00 0.00 0.00 0.000
9:45am 185 2 5 23 31 90.1 92.3 29.89 11.56 0.00 0.00 0.00 0.000
9:46am 185 3 3 23 31 90.1 92.4 29.90 11.56 0.00 0.00 0.00 0.000
9:47am 194 1 4 23 31 90.1 92.6 29.89 11.56 0.00 0.00 0.00 0.000
9:48am 194 2 4 23 30 90.1 92.8 29.89 11.56 0.00 0.00 0.00 0.000
9:49am 194 1 4 23 30 90.1 92.9 29.89 11.56 0.00 0.00 0.00 0.000
9:50am 194 2 4 23 30 90.1 93.1 29.89 11.56 0.00 0.00 0.00 0.000
9:51am 167 3 4 23 30 90.1 93.2 29.89 11.56 0.00 0.00 0.00 0.000
9:52am 167 3 4 23 29 89.9 93.3 29.89 11.56 0.00 0.00 0.00 0.000
9:53am 146 4 4 23 28 89.9 93.4 29.89 11.56 0.00 0.00 0.00 0.000
9:54am 145 0 4 23 28 89.9 93.5 29.89 11.56 0.00 0.00 0.00 0.000
9:55am 145 1 4 23 28 89.9 93.7 29.89 11.56 0.00 0.00 0.00 0.000
9:56am 141 1 4 24 27 89.9 93.9 29.89 11.56 0.00 0.00 0.00 0.000
9:56am 141 2 4 24 27 89.9 94.0 29.89 11.56 0.00 0.00 0.00 0.000
9:58am 141 0 4 24 27 89.9 94.1 29.89 11.56 0.00 0.00 0.00 0.000
9:59am 140 0 4 24 27 89.9 94.1 29.89 11.56 0.00 0.00 0.00 0.000
10:00am 140 1 4 24 27 89.9 94.2 29.89 11.56 0.00 0.00 0.00 0.000
10:01am 140 2 3 24 27 89.9 94.4 29.89 11.56 0.00 0.00 0.00 0.000
10:02am 140 1 3 24 27 89.9 94.5 29.89 11.56 0.00 0.00 0.00 0.000
10:03am 104 3 3 24 26 89.9 94.6 29.89 11.56 0.00 0.00 0.00 0.000
10:04am 166 2 3 24 28 89.7 94.8 29.89 11.56 0.00 0.00 0.00 0.000
10:05am 167 3 3 24 27 89.7 94.9 29.89 11.56 0.00 0.00 0.00 0.000
10:06am 167 4 4 23 27 89.7 95.0 29.89 11.56 0.00 0.00 0.00 0.000
10:07am 167 3 4 23 26 89.7 95.1 29.89 11.56 0.00 0.00 0.00 0.000
10:08am 169 4 4 23 27 89.7 95.3 29.89 11.56 0.00 0.00 0.00 0.000
10:09am 175 2 4 23 26 89.7 95.4 29.89 11.56 0.00 0.00 0.00 0.000
10:10am 175 3 4 23 26 89.7 95.5 29.89 11.56 0.00 0.00 0.00 0.000
10:11am 176 3 4 23 26 89.7 95.6 29.89 11.56 0.00 0.00 0.00 0.000
10:12am 176 1 4 23 26 89.7 95.7 29.89 11.56 0.00 0.00 0.00 0.000
10:13am 177 3 4 24 26 89.7 95.8 29.89 11.56 0.00 0.00 0.00 0.000
10:14am 180 2 5 24 26 89.5 96.0 29.89 11.56 0.00 0.00 0.00 0.000
10:15am 180 2 5 24 26 89.5 96.1 29.89 11.56 0.00 0.00 0.00 0.000
10:16am 152 2 4 24 26 89.5 96.3 29.89 11.56 0.00 0.00 0.00 0.000
10:17am 152 3 4 24 25 89.5 96.3 29.89 11.56 0.00 0.00 0.00 0.000
10:18am 152 3 4 24 25 89.5 96.5 29.89 11.56 0.00 0.00 0.00 0.000
10:18am 153 1 4 24 26 89.5 96.5 29.89 11.56 0.00 0.00 0.00 0.000
10:20am 198 4 4 24 26 89.5 96.6 29.88 11.56 0.00 0.00 0.00 0.000
10:21am 180 5 6 24 26 89.5 96.7 29.89 11.56 0.00 0.00 0.00 0.000
10:22am 152 5 6 24 26 89.5 96.8 29.88 11.56 0.00 0.00 0.00 0.000
10:23am 183 2 6 24 26 89.5 96.9 29.88 11.56 0.00 0.00 0.00 0.000
10:24am 182 3 6 24 26 89.5 97.0 29.89 11.56 0.00 0.00 0.00 0.000
10:25am 183 2 6 24 26 89.3 97.2 29.89 11.56 0.00 0.00 0.00 0.000
10:26am 128 2 6 24 26 89.3 97.3 29.89 11.56 0.00 0.00 0.00 0.000
10:27am 165 4 6 24 26 89.3 97.4 29.89 11.56 0.00 0.00 0.00 0.000
10:28am 164 0 6 24 27 89.3 97.5 29.89 11.56 0.00 0.00 0.00 0.000
10:29am 134 2 6 24 28 89.3 97.7 29.89 11.56 0.00 0.00 0.00 0.000
10:30am 165 2 6 24 28 89.3 97.8 29.89 11.56 0.00 0.00 0.00 0.000
10:31am 159 5 5 24 28 89.3 97.9 29.89 11.56 0.00 0.00 0.00 0.000
10:32am 157 3 6 24 29 89.3 98.0 29.89 11.56 0.00 0.00 0.00 0.000
10:33am 118 3 6 24 29 89.3 98.1 29.89 11.56 0.00 0.00 0.00 0.000
10:34am 118 2 6 24 28 89.3 98.2 29.89 11.56 0.00 0.00 0.00 0.000
10:35am 111 5 6 24 30 89.3 98.2 29.89 11.56 0.00 0.00 0.00 0.000
10:36am 118 4 8 24 29 89.3 98.2 29.89 11.56 0.00 0.00 0.00 0.000
10:37am 123 10 10 25 29 89.1 98.0 29.89 11.56 0.00 0.00 0.00 0.000
10:38am 105 10 10 25 29 89.1 97.9 29.89 11.56 0.00 0.00 0.00 0.000
10:38am 128 8 10 25 29 89.1 97.7 29.89 11.56 0.00 0.00 0.00 0.000
10:40am 151 7 10 25 29 89.1 97.5 29.89 11.56 0.00 0.00 0.00 0.000
10:41am 157 1 10 25 29 89.1 97.3 29.89 11.56 0.00 0.00 0.00 0.000
10:42am 211 3 10 25 30 89.1 97.3 29.89 11.56 0.00 0.00 0.00 0.000
10:42am 186 2 10 25 29 89.1 97.3 29.89 11.56 0.00 0.00 0.00 0.000
10:44am 192 5 10 25 28 89.1 97.3 29.89 11.56 0.00 0.00 0.00 0.000
10:45am 201 3 10 25 29 89.1 97.3 29.90 11.56 0.00 0.00 0.00 0.000
10:46am 175 4 7 25 29 89.1 97.4 29.89 11.56 0.00 0.00 0.00 0.000
10:47am 165 5 7 25 29 89.1 97.4 29.89 11.56 0.00 0.00 0.00 0.000
10:48am 177 4 7 25 29 89.1 97.4 29.89 11.56 0.00 0.00 0.00 0.000
10:49am 188 3 7 25 29 88.9 97.5 29.89 11.56 0.00 0.00 0.00 0.000
10:50am 182 5 7 25 30 88.9 97.5 29.89 11.56 0.00 0.00 0.00 0.000
10:51am 184 3 10 25 30 88.9 97.6 29.89 11.56 0.00 0.00 0.00 0.000
10:52am 184 2 10 25 31 88.9 97.7 29.89 11.56 0.00 0.00 0.00 0.000
10:53am 183 4 10 25 30 88.9 97.8 29.90 11.56 0.00 0.00 0.00 0.000
10:54am 205 4 10 25 30 88.9 97.9 29.89 11.56 0.00 0.00 0.00 0.000
10:55am 197 2 10 25 29 88.9 97.9 29.90 11.56 0.00 0.00 0.00 0.000
10:56am 193 4 10 25 29 88.9 98.0 29.89 11.56 0.00 0.00 0.00 0.000
10:57am 192 3 10 25 30 88.6 98.0 29.89 11.56 0.00 0.00 0.00 0.000
10:58am 145 3 10 25 30 88.6 98.1 29.90 11.56 0.00 0.00 0.00 0.000
10:59am 172 6 10 25 30 88.6 98.1 29.89 11.56 0.00 0.00 0.00 0.000
11:00am 169 3 10 25 30 88.6 98.1 29.90 11.56 0.00 0.00 0.00 0.000
11:01am 182 3 5 25 30 88.6 98.2 29.90 11.56 0.00 0.00 0.00 0.000
11:02am 182 2 5 25 30 88.6 98.2 29.90 11.56 0.00 0.00 0.00 0.000
11:03am 176 3 5 25 30 88.6 98.2 29.90 11.56 0.00 0.00 0.00 0.000
11:04am 164 3 5 25 30 88.6 98.2 29.90 11.56 0.00 0.00 0.00 0.000
11:05am 168 4 5 25 30 88.6 98.2 29.90 11.56 0.00 0.00 0.00 0.000
11:06am 161 4 5 25 30 88.6 98.3 29.90 11.56 0.00 0.00 0.00 0.000
11:07am 159 4 5 25 30 88.6 98.3 29.90 11.56 0.00 0.00 0.00 0.000
11:08am 143 2 5 26 30 88.6 98.3 29.90 11.56 0.00 0.00 0.00 0.000
11:09am 184 4 5 26 30 88.6 98.4 29.89 11.56 0.00 0.00 0.00 0.000
11:10am 184 4 5 26 30 88.6 98.4 29.89 11.56 0.00 0.00 0.00 0.000
11:11am 174 3 5 26 30 88.6 98.5 29.89 11.56 0.00 0.00 0.00 0.000
11:12am 160 1 5 26 30 88.6 98.5 29.89 11.56 0.00 0.00 0.00 0.000
11:13am 175 4 6 26 30 88.6 98.6 29.89 11.56 0.00 0.00 0.00 0.000
11:14am 175 4 6 26 30 88.6 98.6 29.89 11.56 0.00 0.00 0.00 0.000
11:15am 175 4 6 27 30 88.4 98.6 29.89 11.56 0.00 0.00 0.00 0.000
11:16am 174 5 5 27 29 88.4 98.6 29.89 11.56 0.00 0.00 0.00 0.000
11:17am 175 3 6 26 29 88.4 98.6 29.89 11.56 0.00 0.00 0.00 0.000
11:18am 175 4 6 26 29 88.4 98.6 29.89 11.56 0.00 0.00 0.00 0.000
11:18am 174 4 6 26 29 88.4 98.6 29.89 11.56 0.00 0.00 0.00 0.000
11:20am 184 0 6 26 29 88.4 98.7 29.89 11.56 0.00 0.00 0.00 0.000
11:21am 183 0 6 26 30 88.4 98.8 29.89 11.56 0.00 0.00 0.00 0.000
11:22am 184 3 6 26 30 88.4 99.0 29.89 11.56 0.00 0.00 0.00 0.000
11:23am 184 3 6 26 30 88.4 99.0 29.89 11.56 0.00 0.00 0.00 0.000
11:24am 221 4 6 26 30 88.4 99.2 29.89 11.56 0.00 0.00 0.00 0.000
11:25am 221 0 6 26 30 88.4 99.2 29.89 11.56 0.00 0.00 0.00 0.000
11:26am 184 5 7 26 30 88.4 99.3 29.89 11.56 0.00 0.00 0.00 0.000
11:27am 184 0 7 26 29 88.2 99.4 29.90 11.56 0.00 0.00 0.00 0.000
11:28am 118 0 7 26 29 88.2 99.4 29.89 11.56 0.00 0.00 0.00 0.000
11:29am 158 2 7 26 29 88.2 99.5 29.89 11.56 0.00 0.00 0.00 0.000
11:30am 182 5 9 26 29 88.2 99.6 29.90 11.56 0.00 0.00 0.00 0.000
11:31am 184 1 5 26 29 88.2 99.7 29.90 11.56 0.00 0.00 0.00 0.000
11:32am 171 4 5 26 29 88.2 99.7 29.90 11.56 0.00 0.00 0.00 0.000
11:33am 149 6 6 26 28 88.2 99.8 29.90 11.56 0.00 0.00 0.00 0.000
11:34am 159 5 7 26 28 88.2 99.8 29.89 11.56 0.00 0.00 0.00 0.000
11:35am 156 3 7 26 27 88.2 99.7 29.90 11.56 0.00 0.00 0.00 0.000
11:36am 163 0 7 26 27 88.2 99.6 29.90 11.56 0.00 0.00 0.00 0.000
11:37am 161 0 7 26 27 88.0 99.7 29.90 11.56 0.00 0.00 0.00 0.000
11:38am 106 2 7 26 28 88.0 99.7 29.89 11.56 0.00 0.00 0.00 0.000
11:39am 183 2 7 26 28 88.0 99.7 29.89 11.56 0.00 0.00 0.00 0.000
11:40am 133 2 7 26 28 88.0 99.7 29.89 11.56 0.00 0.00 0.00 0.000
11:41am 82 4 7 26 28 88.0 99.7 29.89 11.56 0.00 0.00 0.00 0.000
11:42am 105 2 7 26 28 88.0 99.6 29.89 11.56 0.00 0.00 0.00 0.000
11:43am 139 3 7 26 28 88.0 99.6 29.89 11.56 0.00 0.00 0.00 0.000
11:44am 169 3 7 27 28 88.0 99.6 29.89 11.56 0.00 0.00 0.00 0.000
11:45am 199 5 7 27 29 88.0 99.7 29.89 11.56 0.00 0.00 0.00 0.000
11:46am 179 2 5 27 29 88.0 99.7 29.89 11.56 0.00 0.00 0.00 0.000
11:47am 170 2 5 27 29 88.0 99.8 29.89 11.56 0.00 0.00 0.00 0.000
11:48am 177 1 5 27 29 88.0 99.9 29.89 11.56 0.00 0.00 0.00 0.000
11:49am 273 2 5 27 29 87.8 100.0 29.89 11.56 0.00 0.00 0.00 0.000
11:50am 272 0 5 27 29 87.8 100.1 29.89 11.56 0.00 0.00 0.00 0.000
11:51am 271 0 5 27 29 87.8 100.1 29.89 11.56 0.00 0.00 0.00 0.000
11:52am 229 2 5 27 29 87.8 100.3 29.89 11.56 0.00 0.00 0.00 0.000
11:53am 188 4 5 27 28 87.8 100.4 29.89 11.56 0.00 0.00 0.00 0.000
11:54am 209 5 6 27 28 87.8 100.4 29.89 11.56 0.00 0.00 0.00 0.000
11:55am 204 2 6 27 27 87.8 100.5 29.89 11.56 0.00 0.00 0.00 0.000
11:56am 180 7 7 27 28 87.8 100.5 29.89 11.56 0.00 0.00 0.00 0.000
11:57am 183 5 7 27 27 87.8 100.6 29.89 11.56 0.00 0.00 0.00 0.000
11:58am 227 4 7 27 27 87.8 100.7 29.89 11.56 0.00 0.00 0.00 0.000
11:59am 237 4 7 27 27 87.8 100.7 29.89 11.56 0.00 0.00 0.00 0.000
12:00pm 222 4 7 27 26 87.8 100.7 29.89 11.56 0.00 0.00 0.00 0.000
12:01pm 223 0 4 27 26 87.6 100.7 29.89 11.56 0.00 0.00 0.00 0.000
12:01pm 226 0 4 27 26 87.6 100.7 29.89 11.56 0.00 0.00 0.00 0.000
12:03pm 181 3 5 27 26 87.6 100.8 29.89 11.56 0.00 0.00 0.00 0.000
12:04pm 163 2 5 27 26 87.6 101.0 29.89 11.56 0.00 0.00 0.00 0.000
12:05pm 168 3 5 27 26 87.6 101.1 29.89 11.56 0.00 0.00 0.00 0.000
12:05pm 197 0 5 27 25 87.6 101.1 29.89 11.56 0.00 0.00 0.00 0.000
12:07pm 213 4 6 27 26 87.6 101.3 29.89 11.56 0.00 0.00 0.00 0.000
12:08pm 123 6 6 27 25 87.6 101.4 29.89 11.56 0.00 0.00 0.00 0.000
12:09pm 166 3 6 27 24 87.6 101.5 29.89 11.56 0.00 0.00 0.00 0.000
12:10pm 166 0 6 27 24 87.6 101.5 29.89 11.56 0.00 0.00 0.00 0.000
12:11pm 170 6 6 27 25 87.6 101.7 29.89 11.56 0.00 0.00 0.00 0.000
12:12pm 193 2 7 27 25 87.6 101.7 29.89 11.56 0.00 0.00 0.00 0.000
12:13pm 192 4 7 27 26 87.4 101.9 29.89 11.56 0.00 0.00 0.00 0.000
12:14pm 219 3 7 27 26 87.4 102.0 29.88 11.56 0.00 0.00 0.00 0.000
12:15pm 256 5 10 27 25 87.4 102.0 29.89 11.56 0.00 0.00 0.00 0.000
12:16pm 253 4 5 27 25 87.4 101.9 29.89 11.56 0.00 0.00 0.00 0.000
12:17pm 267 0 5 27 25 87.4 101.8 29.89 11.56 0.00 0.00 0.00 0.000
12:18pm 251 3 6 27 26 87.4 101.9 29.88 11.56 0.00 0.00 0.00 0.000
12:19pm 224 5 6 27 25 87.4 101.9 29.88 11.56 0.00 0.00 0.00 0.000
12:20pm 207 3 6 27 25 87.4 101.9 29.88 11.56 0.00 0.00 0.00 0.000
12:20pm 263 6 7 27 26 87.4 102.0 29.89 11.56 0.00 0.00 0.00 0.000
12:22pm 256 8 9 27 25 87.4 102.0 29.88 11.56 0.00 0.00 0.00 0.000
12:23pm 214 5 9 27 25 87.4 102.0 29.89 11.56 0.00 0.00 0.00 0.000
12:24pm 229 4 9 27 25 87.4 101.9 29.89 11.56 0.00 0.00 0.00 0.000
12:25pm 180 3 9 27 25 87.2 101.8 29.89 11.56 0.00 0.00 0.00 0.000
12:26pm 180 0 9 27 25 87.2 101.7 29.89 11.56 0.00 0.00 0.00 0.000
12:27pm 218 4 9 27 25 87.2 101.7 29.88 11.56 0.00 0.00 0.00 0.000
12:28pm 206 2 9 27 25 87.2 101.7 29.89 11.56 0.00 0.00 0.00 0.000
12:29pm 206 1 9 27 25 87.2 101.7 29.88 11.56 0.00 0.00 0.00 0.000
12:30pm 194 3 9 27 26 87.2 101.7 29.88 11.56 0.00 0.00 0.00 0.000
12:31pm 207 2 6 27 26 87.2 101.8 29.88 11.56 0.00 0.00 0.00 0.000
12:32pm 201 3 6 27 26 87.2 101.9 29.88 11.56 0.00 0.00 0.00 0.000
12:33pm 197 3 6 27 26 87.2 101.9 29.88 11.56 0.00 0.00 0.00 0.000
12:34pm 197 2 6 27 26 87.2 102.0 29.88 11.56 0.00 0.00 0.00 0.000
12:35pm 206 3 6 27 26 87.2 102.0 29.88 11.56 0.00 0.00 0.00 0.000
12:36pm 209 4 6 27 26 87.2 102.1 29.88 11.56 0.00 0.00 0.00 0.000
12:37pm 227 6 10 27 26 87.2 102.1 29.88 11.56 0.00 0.00 0.00 0.000
12:38pm 242 4 10 27 25 87.2 102.0 29.88 11.56 0.00 0.00 0.00 0.000
12:39pm 211 1 10 27 25 87.0 102.0 29.88 11.56 0.00 0.00 0.00 0.000
12:40pm 211 3 10 27 25 87.0 102.0 29.88 11.56 0.00 0.00 0.00 0.000
12:41pm 242 4 10 27 25 87.0 102.0 29.88 11.56 0.00 0.00 0.00 0.000
12:42pm 238 3 10 27 25 87.0 102.0 29.88 11.56 0.00 0.00 0.00 0.000
12:43pm 233 2 10 27 26 87.0 102.0 29.88 11.56 0.00 0.00 0.00 0.000
12:44pm 233 1 10 27 25 87.0 102.0 29.88 11.56 0.00 0.00 0.00 0.000
12:45pm 233 3 10 27 25 87.0 102.1 29.88 11.56 0.00 0.00 0.00 0.000
12:46pm 237 3 4 27 25 87.0 102.2 29.88 11.56 0.00 0.00 0.00 0.000
12:46pm 209 3 8 27 25 87.0 102.3 29.88 11.56 0.00 0.00 0.00 0.000
12:48pm 280 3 8 27 25 87.0 102.5 29.88 11.56 0.00 0.00 0.00 0.000
12:49pm 253 5 8 27 24 87.0 102.6 29.88 11.56 0.00 0.00 0.00 0.000
12:50pm 217 3 8 27 25 87.0 102.6 29.88 11.56 0.00 0.00 0.00 0.000
12:51pm 188 5 8 27 24 87.0 102.7 29.88 11.56 0.00 0.00 0.00 0.000
12:52pm 259 7 9 27 25 87.0 102.8 29.88 11.56 0.00 0.00 0.00 0.000
12:53pm 229 5 9 27 24 87.0 102.7 29.88 11.56 0.00 0.00 0.00 0.000
12:54pm 237 1 9 27 24 87.0 102.6 29.88 11.56 0.00 0.00 0.00 0.000
12:55pm 197 7 9 28 24 86.8 102.6 29.88 11.56 0.00 0.00 0.00 0.000
12:56pm 215 6 9 28 24 86.8 102.5 29.88 11.56 0.00 0.00 0.00 0.000
12:56pm 197 5 9 28 24 86.8 102.4 29.87 11.56 0.00 0.00 0.00 0.000
12:58pm 229 5 10 28 24 86.8 102.5 29.88 11.56 0.00 0.00 0.00 0.000
12:59pm 189 5 10 28 24 86.8 102.5 29.87 11.56 0.00 0.00 0.00 0.000
1:00pm 202 7 10 28 25 86.8 102.5 29.87 11.56 0.00 0.00 0.00 0.000
1:00pm 199 4 6 28 24 86.8 102.5 29.88 11.56 0.00 0.00 0.00 0.000
1:02pm 311 4 6 28 24 86.8 102.6 29.88 11.56 0.00 0.00 0.00 0.000
1:03pm 321 2 6 28 24 86.8 102.6 29.88 11.56 0.00 0.00 0.00 0.000
1:04pm 219 12 12 28 24 86.8 102.7 29.88 11.56 0.00 0.00 0.00 0.000
1:05pm 230 2 12 28 24 86.8 102.7 29.88 11.56 0.00 0.00 0.00 0.000
1:06pm 225 2 12 28 24 86.8 102.8 29.87 11.56 0.00 0.00 0.00 0.000
1:07pm 214 1 12 28 24 86.8 102.9 29.87 11.56 0.00 0.00 0.00 0.000
1:08pm 232 7 12 28 23 86.8 103.0 29.87 11.56 0.00 0.00 0.00 0.000
1:09pm 257 5 12 28 23 86.8 103.0 29.87 11.56 0.00 0.00 0.00 0.000
1:10pm 189 3 12 28 24 86.8 102.9 29.87 11.56 0.00 0.00 0.00 0.000
1:11pm 213 7 12 28 24 86.8 103.0 29.87 11.56 0.00 0.00 0.00 0.000
1:12pm 209 11 13 28 24 86.8 103.0 29.87 11.56 0.00 0.00 0.00 0.000
1:13pm 277 6 13 28 24 86.8 103.0 29.87 11.56 0.00 0.00 0.00 0.000
1:14pm 211 0 13 28 24 86.6 103.1 29.87 11.56 0.00 0.00 0.00 0.000
1:15pm 161 6 13 28 24 86.6 103.1 29.87 11.56 0.00 0.00 0.00 0.000
1:16pm 205 4 10 28 24 86.6 103.1 29.87 11.56 0.00 0.00 0.00 0.000
1:17pm 241 10 11 28 24 86.6 103.1 29.87 11.56 0.00 0.00 0.00 0.000
1:18pm 215 5 11 28 24 86.6 103.0 29.87 11.56 0.00 0.00 0.00 0.000
1:19pm 207 6 11 28 24 86.6 103.0 29.87 11.56 0.00 0.00 0.00 0.000
1:19pm 256 9 14 28 24 86.6 103.0 29.87 11.56 0.00 0.00 0.00 0.000
1:21pm 180 3 14 28 23 86.6 102.9 29.87 11.56 0.00 0.00 0.00 0.000
1:22pm 275 8 14 28 24 86.6 102.8 29.87 11.56 0.00 0.00 0.00 0.000
1:23pm 209 6 14 28 23 86.6 102.8 29.87 11.56 0.00 0.00 0.00 0.000
1:24pm 203 5 14 28 24 86.6 102.8 29.87 11.56 0.00 0.00 0.00 0.000
1:25pm 211 4 14 28 24 86.6 102.7 29.86 11.56 0.00 0.00 0.00 0.000
1:26pm 201 8 14 28 24 86.6 102.7 29.86 11.56 0.00 0.00 0.00 0.000
1:27pm 213 7 14 28 24 86.6 102.7 29.87 11.56 0.00 0.00 0.00 0.000
1:28pm 197 5 14 28 24 86.6 102.6 29.86 11.56 0.00 0.00 0.00 0.000
1:29pm 167 4 14 28 24 86.6 102.6 29.86 11.56 0.00 0.00 0.00 0.000
1:30pm 186 6 14 28 23 86.6 102.6 29.86 11.56 0.00 0.00 0.00 0.000
1:31pm 189 4 10 28 23 86.6 102.5 29.86 11.56 0.00 0.00 0.00 0.000
1:32pm 232 3 10 28 24 86.6 102.5 29.86 11.56 0.00 0.00 0.00 0.000
1:33pm 211 4 10 28 24 86.6 102.5 29.86 11.56 0.00 0.00 0.00 0.000
1:34pm 215 3 10 28 24 86.6 102.5 29.86 11.56 0.00 0.00 0.00 0.000
1:35pm 219 0 10 28 25 86.6 102.6 29.86 11.56 0.00 0.00 0.00 0.000
1:36pm 219 0 10 28 24 86.6 102.6 29.86 11.56 0.00 0.00 0.00 0.000
1:37pm 202 5 10 28 24 86.6 102.7 29.87 11.56 0.00 0.00 0.00 0.000
1:38pm 189 6 10 28 23 86.4 102.8 29.86 11.56 0.00 0.00 0.00 0.000
1:39pm 203 3 10 28 23 86.4 102.8 29.86 11.56 0.00 0.00 0.00 0.000
1:40pm 185 6 11 28 24 86.4 102.8 29.87 11.56 0.00 0.00 0.00 0.000
1:41pm 196 6 11 28 24 86.4 102.8 29.87 11.56 0.00 0.00 0.00 0.000
1:42pm 199 4 11 28 24 86.4 102.7 29.87 11.56 0.00 0.00 0.00 0.000
1:43pm 167 6 11 28 24 86.4 102.7 29.87 11.56 0.00 0.00 0.00 0.000
1:44pm 241 5 11 28 24 86.4 102.7 29.87 11.56 0.00 0.00 0.00 0.000
1:45pm 225 10 11 28 24 86.4 102.7 29.87 11.56 0.00 0.00 0.00 0.000
1:45pm 227 5 11 28 24 86.4 102.7 29.87 11.56 0.00 0.00 0.00 0.000
1:47pm 214 3 11 28 24 86.4 102.6